When you browse on this site, cookies collect data to enhance your experience and personalize the content and advertising you see.
Visit our Privacy Policy to learn more. By continuing to use the site, you agree to this use of cookies and data.
  • In Spain
  • List of Countries
  • For 7 days
  • Water Temperature
  • Satellite Maps
  • Weather Map
  • Weather Widgets
  • user-avatar
    Login

    Hourly Weather Satif

    Today, 20 January, Sunday

    Time Temperature Precipitation Wind Pressure Humidity
    00:00 +3°C° 0 mm 1 mps 668 mmHg 88%
    01:00 +2°C° 0 mm 1 mps 667 mmHg 87%
    02:00 +2°C° 0 mm 1 mps 667 mmHg 85%
    03:00 +2°C° 0 mm 1 mps 667 mmHg 84%
    04:00 +1°C° 0 mm 2 mps 667 mmHg 83%
    05:00 +1°C° 0 mm 2 mps 666 mmHg 83%
    06:00 +1°C° 0 mm 2 mps 666 mmHg 82%
    07:00 +2°C° 0 mm 2 mps 666 mmHg 80%
    08:00 +2°C° 0 mm 3 mps 667 mmHg 78%
    09:00 +3°C° 0 mm 3 mps 667 mmHg 76%
    10:00 +4°C° 0.2 mm 4 mps 667 mmHg 76%
    11:00 +5°C° 0.2 mm 4 mps 666 mmHg 76%
    12:00 +6°C° 0.2 mm 5 mps 666 mmHg 76%
    13:00 +5°C° 1.5 mm 5 mps 666 mmHg 79%
    14:00 +3°C° 1.5 mm 5 mps 665 mmHg 82%
    15:00 +3°C° 1.5 mm 5 mps 665 mmHg 85%
    16:00 +4°C° 0.3 mm 4 mps 664 mmHg 87%
    17:00 +3°C° 0.3 mm 4 mps 664 mmHg 88%
    18:00 +3°C° 0.3 mm 3 mps 664 mmHg 90%
    19:00 +3°C° 0 mm 3 mps 664 mmHg 91%
    20:00 +3°C° 0 mm 3 mps 664 mmHg 92%
    21:00 +2°C° 0 mm 3 mps 664 mmHg 93%
    22:00 +2°C° 0 mm 3 mps 664 mmHg 93%
    23:00 +3°C° 0 mm 2 mps 664 mmHg 93%

    Tomorrow, 21 January, Monday

    Time Temperature Precipitation Wind Pressure Humidity
    00:00 +3°C° 0 mm 2 mps 664 mmHg 94%
    01:00 +3°C° 0.1 mm 2 mps 664 mmHg 94%
    02:00 +3°C° 0.1 mm 2 mps 664 mmHg 94%
    03:00 +3°C° 0.1 mm 2 mps 664 mmHg 94%
    04:00 +2°C° 0 mm 3 mps 664 mmHg 94%
    05:00 +2°C° 0 mm 3 mps 664 mmHg 94%
    06:00 +2°C° 0 mm 3 mps 664 mmHg 93%
    07:00 +1°C° 0 mm 5 mps 664 mmHg 87%
    08:00 +2°C° 0 mm 6 mps 665 mmHg 81%
    09:00 +3°C° 0 mm 7 mps 665 mmHg 75%
    10:00 +3°C° 0.2 mm 7 mps 665 mmHg 75%
    11:00 +3°C° 0.2 mm 7 mps 665 mmHg 75%
    12:00 +4°C° 0.2 mm 7 mps 666 mmHg 74%
    13:00 +3°C° 0.7 mm 7 mps 666 mmHg 77%
    14:00 +3°C° 0.7 mm 6 mps 666 mmHg 80%
    15:00 +2°C° 0.7 mm 6 mps 666 mmHg 83%
    16:00 +2°C° 0.4 mm 6 mps 666 mmHg 85%
    17:00 +2°C° 0.4 mm 5 mps 667 mmHg 87%
    18:00 +1°C° 0.4 mm 5 mps 667 mmHg 89%
    19:00 +1°C° 0.2 mm 4 mps 668 mmHg 90%
    20:00 +1°C° 0.2 mm 4 mps 668 mmHg 92%
    21:00 +1°C° 0.2 mm 4 mps 669 mmHg 93%
    22:00 +1°C° 0.1 mm 3 mps 669 mmHg 93%
    23:00 +1°C° 0.1 mm 3 mps 669 mmHg 94%

    Day after tomorrow, 22 January, Tuesday

    Time Temperature Precipitation Wind Pressure Humidity
    00:00 +1°C° 0.1 mm 3 mps 669 mmHg 95%
    01:00 +1°C° 0 mm 3 mps 669 mmHg 93%
    02:00 +1°C° 0 mm 3 mps 669 mmHg 91%
    03:00 +1°C° 0 mm 3 mps 669 mmHg 89%
    04:00 0°C° 0 mm 3 mps 669 mmHg 89%
    05:00 0°C° 0 mm 3 mps 668 mmHg 90%
    06:00 0°C° 0 mm 3 mps 668 mmHg 91%
    07:00 0°C° 0 mm 3 mps 669 mmHg 88%
    08:00 +1°C° 0 mm 3 mps 669 mmHg 85%
    09:00 +1°C° 0 mm 3 mps 669 mmHg 81%
    10:00 +2°C° 0 mm 3 mps 669 mmHg 75%
    11:00 +3°C° 0 mm 3 mps 669 mmHg 68%
    12:00 +4°C° 0 mm 3 mps 669 mmHg 62%
    13:00 +4°C° 0.1 mm 3 mps 668 mmHg 60%
    14:00 +4°C° 0.1 mm 4 mps 667 mmHg 58%
    15:00 +5°C° 0.1 mm 4 mps 667 mmHg 55%
    16:00 +4°C° 0 mm 3 mps 666 mmHg 60%
    17:00 +3°C° 0 mm 3 mps 666 mmHg 66%
    18:00 +3°C° 0 mm 2 mps 665 mmHg 71%
    19:00 +1°C° 0 mm 3 mps 665 mmHg 73%
    20:00 +1°C° 0 mm 3 mps 665 mmHg 76%
    21:00 0°C° 0 mm 3 mps 664 mmHg 79%
    22:00 0°C° 0 mm 3 mps 664 mmHg 77%
    23:00 0°C° 0 mm 3 mps 663 mmHg 75%

    23 January, Wednesday

    Time Temperature Precipitation Wind Pressure Humidity
    00:00 -1°C° 0 mm 4 mps 662 mmHg 73%
    01:00 -1°C° 0.1 mm 4 mps 661 mmHg 77%
    02:00 -1°C° 0.1 mm 4 mps 661 mmHg 80%
    03:00 -1°C° 0.1 mm 5 mps 660 mmHg 84%
    04:00 -1°C° 0.7 mm 4 mps 659 mmHg 87%
    05:00 -1°C° 0.7 mm 4 mps 659 mmHg 90%
    06:00 -1°C° 0.7 mm 4 mps 659 mmHg 93%
    07:00 -1°C° 0.4 mm 5 mps 659 mmHg 90%
    08:00 -2°C° 0.4 mm 6 mps 659 mmHg 86%
    09:00 -2°C° 0.4 mm 8 mps 659 mmHg 83%
    10:00 -2°C° 0.6 mm 8 mps 659 mmHg 82%
    11:00 -2°C° 0.6 mm 8 mps 659 mmHg 81%
    12:00 -2°C° 0.6 mm 8 mps 658 mmHg 81%
    13:00 -2°C° 1.5 mm 7 mps 658 mmHg 84%
    14:00 -2°C° 1.5 mm 6 mps 658 mmHg 87%
    15:00 -3°C° 1.5 mm 6 mps 657 mmHg 91%
    16:00 -2°C° 2.2 mm 5 mps 657 mmHg 92%
    17:00 -2°C° 2.2 mm 4 mps 656 mmHg 93%
    18:00 -1°C° 2.2 mm 3 mps 656 mmHg 94%
    19:00 -1°C° 2.6 mm 3 mps 656 mmHg 95%
    20:00 -1°C° 2.6 mm 2 mps 656 mmHg 96%
    21:00 -2°C° 2.6 mm 2 mps 657 mmHg 97%
    22:00 -2°C° 0.8 mm 3 mps 657 mmHg 94%
    23:00 -4°C° 0.8 mm 4 mps 657 mmHg 91%

    24 January, Thursday

    Time Temperature Precipitation Wind Pressure Humidity
    00:00 -5°C° 0.8 mm 4 mps 657 mmHg 89%
    01:00 -5°C° 0.1 mm 4 mps 657 mmHg 88%
    02:00 -7°C° 0.1 mm 4 mps 656 mmHg 88%
    03:00 -8°C° 0.1 mm 4 mps 656 mmHg 88%
    04:00 -7°C° 0.1 mm 4 mps 656 mmHg 89%
    05:00 -7°C° 0.1 mm 5 mps 656 mmHg 91%
    06:00 -7°C° 0.1 mm 5 mps 657 mmHg 92%
    07:00 -6°C° 0.1 mm 6 mps 657 mmHg 91%
    08:00 -6°C° 0.1 mm 6 mps 658 mmHg 91%
    09:00 -6°C° 0.1 mm 7 mps 658 mmHg 90%
    10:00 -6°C° 1.4 mm 8 mps 659 mmHg 91%
    11:00 -6°C° 1.4 mm 8 mps 659 mmHg 91%
    12:00 -5°C° 1.4 mm 9 mps 659 mmHg 92%
    13:00 -5°C° 2.7 mm 8 mps 659 mmHg 93%
    14:00 -4°C° 2.7 mm 7 mps 660 mmHg 94%
    15:00 -4°C° 2.7 mm 6 mps 660 mmHg 94%
    16:00 -4°C° 0.8 mm 7 mps 661 mmHg 95%
    17:00 -3°C° 0.8 mm 7 mps 661 mmHg 95%
    18:00 -3°C° 0.8 mm 7 mps 662 mmHg 96%
    19:00 -3°C° 0.1 mm 7 mps 663 mmHg 96%
    20:00 -3°C° 0.1 mm 7 mps 663 mmHg 96%
    21:00 -3°C° 0.1 mm 6 mps 664 mmHg 96%
    22:00 -4°C° 0.1 mm 5 mps 664 mmHg 96%
    23:00 -3°C° 0.1 mm 4 mps 664 mmHg 97%

    25 January, Friday

    Time Temperature Precipitation Wind Pressure Humidity
    00:00 -2°C° 0.1 mm 2 mps 664 mmHg 97%
    01:00 -3°C° 0.1 mm 2 mps 664 mmHg 97%
    02:00 -4°C° 0.1 mm 2 mps 664 mmHg 97%
    03:00 -4°C° 0.1 mm 2 mps 663 mmHg 96%
    04:00 -5°C° 0.1 mm 2 mps 663 mmHg 95%
    05:00 -5°C° 0.1 mm 2 mps 663 mmHg 94%
    06:00 -6°C° 0.1 mm 2 mps 663 mmHg 93%
    07:00 -5°C° 0.1 mm 2 mps 663 mmHg 91%
    08:00 -4°C° 0.1 mm 2 mps 664 mmHg 90%
    09:00 -3°C° 0.1 mm 2 mps 664 mmHg 89%
    10:00 -1°C° 0.1 mm 1 mps 664 mmHg 92%
    11:00 0°C° 0.1 mm 1 mps 664 mmHg 95%
    12:00 +1°C° 0.1 mm 1 mps 664 mmHg 97%
    13:00 +1°C° 0.8 mm 1 mps 664 mmHg 97%
    14:00 +1°C° 0.8 mm 1 mps 665 mmHg 98%
    15:00 -1°C° 0.8 mm 2 mps 665 mmHg 98%
    16:00 -2°C° 0.2 mm 2 mps 665 mmHg 97%
    17:00 -2°C° 0.2 mm 2 mps 665 mmHg 97%
    18:00 -2°C° 0.2 mm 2 mps 666 mmHg 96%
    19:00 -4°C° 0.1 mm 3 mps 666 mmHg 95%
    20:00 -4°C° 0.1 mm 3 mps 667 mmHg 95%
    21:00 -4°C° 0.1 mm 3 mps 667 mmHg 94%
    22:00 -4°C° 0.1 mm 4 mps 667 mmHg 95%
    23:00 -4°C° 0.1 mm 4 mps 668 mmHg 95%
    Show more